Berlin Tegel, Germany

5:41 PM CEST on May 21, 2018 (GMT +0200)
Tegel

Weather History for EDDT - October, 2013

Change the Weather History Date:

Tuesday, October 29, 2013

  Actual Average Record
Temperature  
Mean Temperature 54 °F -  
Max Temperature 60 °F 44 °F 60 °F (2000)
Min Temperature 49 °F 35 °F 23 °F (2012)
Degree Days  
Heating Degree Days 10    
Growing Degree Days 4 (Base 50)    
Moisture  
Dew Point 42 °F    
Average Humidity 60    
Maximum Humidity 76    
Minimum Humidity 37    
Precipitation  
Precipitation 0.00 in - - ()
Sea Level Pressure  
Sea Level Pressure 29.83 in    
Wind  
Wind Speed 14 mph ()    
Max Wind Speed 23 mph    
Max Gust Speed 28 mph    
Visibility 9.4 miles    
Events      
Averages and records for this station are not official NWS values.
T = Trace of Precipitation, MM = Missing Value Source: Averaged Metar Reports

Daily Weather History Graph

Daily Weather History Graph

Search for Another Location

Airport or City:

Astronomy

Oct. 29, 2013 Rise Set
Actual Time 6:57 AM CET 4:42 PM CET
Civil Twilight 6:21 AM CET 5:18 PM CET
Nautical Twilight 5:41 AM CET 5:58 PM CET
Astronomical Twilight 5:02 AM CET 6:37 PM CET
Moon 12:51 AM CET (10/29) 2:22 PM CET (10/29)
Length of Visible Light 10h 56m
Length of Day
9h 44m
Waning Crescent, 27% of the Moon is Illuminated
Oct 29
Waning Crescent
Nov 3
New
Nov 10
First Quarter
Nov 17
Full
Nov 25
Last Quarter

Hourly Weather History & Observations

Time (CET) Temp. Dew Point Humidity Pressure Visibility Wind Dir Wind Speed Gust Speed Precip Events Conditions
12:00 AM 57 °F 44 °F 51% 29.66 in 25 mi WSW 15.7 mph - -  
12:20 AM 57.2 °F 42.8 °F 59% 29.68 in - SW 16.1 mph 27.6 mph N/A   Clear
12:50 AM 55.4 °F 42.8 °F 63% 29.68 in - WSW 19.6 mph - N/A   Clear
1:00 AM 56 °F 44 °F 53% 29.69 in 25 mi WSW 20.1 mph - -  
1:20 AM 55.4 °F 41.0 °F 58% 29.68 in - WSW 20.7 mph - N/A   Clear
1:50 AM 55.4 °F 42.8 °F 63% 29.68 in - SW 13.8 mph - N/A   Clear
2:00 AM 55 °F 43 °F 53% 29.70 in 28 mi SW 13.4 mph - -  
2:20 AM 55.4 °F 42.8 °F 63% 29.68 in - WSW 19.6 mph - N/A   Clear
2:50 AM 53.6 °F 42.8 °F 67% 29.71 in 6.2 mi SW 12.7 mph - N/A   Scattered Clouds
3:00 AM 54 °F 44 °F 58% 29.71 in 25 mi SW 13.4 mph - -   Partly Cloudy
3:20 AM 55.4 °F 44.6 °F 67% 29.71 in 6.2 mi SW 13.8 mph - N/A   Partly Cloudy
3:50 AM 53.6 °F 44.6 °F 72% 29.71 in 6.2 mi SW 16.1 mph - N/A   Partly Cloudy
4:00 AM 54 °F 45 °F 62% 29.73 in 25 mi SW 15.7 mph - -   Scattered Clouds
4:20 AM 53.6 °F 44.6 °F 72% 29.71 in 6.2 mi WSW 12.7 mph - N/A   Partly Cloudy
4:50 AM 51.8 °F 42.8 °F 71% 29.74 in - SW 11.5 mph - N/A   Clear
5:00 AM 53 °F 44 °F 62% 29.73 in 25 mi SW 11.2 mph - -   Scattered Clouds
5:20 AM 53.6 °F 42.8 °F 67% 29.74 in 6.2 mi SSW 11.5 mph - N/A   Partly Cloudy
5:50 AM 51.8 °F 42.8 °F 71% 29.74 in - SW 11.5 mph - N/A   Clear
6:00 AM 53 °F 44 °F 61% 29.75 in 25 mi SW 11.2 mph - -   Scattered Clouds
6:20 AM 51.8 °F 44.6 °F 76% 29.74 in - SSW 10.4 mph - N/A   Clear
6:50 AM 51.8 °F 42.8 °F 71% 29.77 in - SSW 10.4 mph - N/A   Clear
7:00 AM 52 °F 44 °F 65% 29.77 in 19 mi SSW 8.9 mph - -   Scattered Clouds
7:20 AM 51.8 °F 42.8 °F 71% 29.77 in - SSW 9.2 mph - N/A   Clear
7:50 AM 51.8 °F 44.6 °F 76% 29.77 in - SSW 10.4 mph - N/A   Clear
8:00 AM 52 °F 45 °F 68% 29.79 in 19 mi SSW 11.2 mph - -   Scattered Clouds
8:20 AM 51.8 °F 44.6 °F 76% 29.80 in - SSW 11.5 mph - N/A   Clear
8:50 AM 53.6 °F 44.6 °F 72% 29.80 in - SW 12.7 mph - N/A   Clear
9:00 AM 54 °F 46 °F 65% 29.81 in 16 mi SW 13.4 mph - -   Scattered Clouds
9:20 AM 55.4 °F 46.4 °F 72% 29.80 in - SW 15.0 mph - N/A   Clear
9:50 AM 55.4 °F 44.6 °F 67% 29.80 in - SW 15.0 mph - N/A   Clear
10:00 AM 56 °F 45 °F 57% 29.82 in 16 mi SW 15.7 mph - -   Scattered Clouds
10:20 AM 57.2 °F 44.6 °F 63% 29.83 in - SW 13.8 mph - N/A   Clear
10:50 AM 59.0 °F 44.6 °F 59% 29.83 in 6.2 mi SW 13.8 mph - N/A   Scattered Clouds
11:00 AM 58 °F 45 °F 51% 29.83 in 19 mi SW 13.4 mph - -   Scattered Clouds
11:20 AM 59.0 °F 42.8 °F 55% 29.83 in 6.2 mi SW 18.4 mph - N/A   Scattered Clouds
11:50 AM 57.2 °F 42.8 °F 59% 29.83 in 6.2 mi WSW 18.4 mph - N/A   Scattered Clouds
12:00 PM 58 °F 42 °F 45% 29.84 in 19 mi WSW 17.9 mph - -   Partly Cloudy
12:20 PM 57.2 °F 42.8 °F 59% 29.83 in 6.2 mi WSW 15.0 mph - N/A   Scattered Clouds
12:50 PM 59.0 °F 41.0 °F 51% 29.83 in 6.2 mi WSW 21.9 mph - N/A   Mostly Cloudy
1:00 PM 59 °F 40 °F 38% 29.84 in 22 mi WSW 22.4 mph - -   Mostly Cloudy
1:20 PM 59.0 °F 37.4 °F 45% 29.83 in 6.2 mi WSW 23.0 mph - N/A   Mostly Cloudy
1:50 PM 59.0 °F 39.2 °F 48% 29.83 in 6.2 mi WSW 19.6 mph - N/A   Mostly Cloudy
2:00 PM 58 °F 39 °F 38% 29.84 in 22 mi WSW 20.1 mph - -   Mostly Cloudy
2:20 PM 57.2 °F 39.2 °F 51% 29.86 in 6.2 mi WSW 19.6 mph - N/A   Mostly Cloudy
2:50 PM 57.2 °F 39.2 °F 51% 29.86 in - WSW 19.6 mph - N/A   Clear
3:00 PM 58 °F 39 °F 37% 29.86 in 22 mi WSW 17.9 mph - -   Mostly Cloudy
3:20 PM 57.2 °F 39.2 °F 51% 29.86 in - WSW 16.1 mph - N/A   Clear
3:50 PM 57.2 °F 39.2 °F 51% 29.89 in - WSW 21.9 mph - N/A   Clear
4:00 PM 57 °F 39 °F 39% 29.88 in 22 mi WSW 22.4 mph - -   Partly Cloudy
4:20 PM 57.2 °F 37.4 °F 48% 29.89 in - WSW 17.3 mph - N/A   Clear
4:50 PM 55.4 °F 39.2 °F 54% 29.89 in - WSW 12.7 mph - N/A   Clear
5:00 PM 55 °F 39 °F 43% 29.90 in 22 mi WSW 13.4 mph - -   Partly Cloudy
5:20 PM 53.6 °F 39.2 °F 58% 29.89 in - WSW 11.5 mph - N/A   Clear
5:50 PM 53.6 °F 39.2 °F 58% 29.89 in - SW 8.1 mph - N/A   Clear
6:20 PM 53.6 °F 39.2 °F 58% 29.92 in - SSW 8.1 mph - N/A   Clear
6:50 PM 53.6 °F 39.2 °F 58% 29.92 in - SSW 9.2 mph - N/A   Clear
7:00 PM 53 °F 40 °F 50% 29.93 in 28 mi SSW 8.9 mph - -   Partly Cloudy
7:20 PM 53.6 °F 39.2 °F 58% 29.92 in - SSW 9.2 mph - N/A   Clear
7:50 PM 51.8 °F 39.2 °F 62% 29.92 in - SSW 10.4 mph - N/A   Clear
8:00 PM 52 °F 40 °F 52% 29.94 in 28 mi SSW 8.9 mph - -   Scattered Clouds
8:20 PM 51.8 °F 39.2 °F 62% 29.95 in 6.2 mi SSW 10.4 mph - N/A   Scattered Clouds
8:50 PM 50.0 °F 39.2 °F 66% 29.95 in 6.2 mi SSW 10.4 mph - N/A   Partly Cloudy
9:00 PM 51 °F 40 °F 56% 29.96 in 28 mi SSW 11.2 mph - -   Scattered Clouds
9:20 PM 51.8 °F 41.0 °F 67% 29.95 in 6.2 mi SW 11.5 mph - N/A   Partly Cloudy
9:50 PM 50.0 °F 41.0 °F 71% 29.95 in - SSW 8.1 mph - N/A   Clear
10:00 PM 50 °F 40 °F 60% 29.96 in 28 mi SSW 8.9 mph - -   Scattered Clouds
10:20 PM 50.0 °F 41.0 °F 71% 29.95 in - SW 9.2 mph - N/A   Clear
10:50 PM 50.0 °F 41.0 °F 71% 29.95 in - SSW 9.2 mph - N/A   Clear
11:00 PM 49 °F 40 °F 63% 29.97 in 28 mi SSW 8.9 mph - -  
11:20 PM 50.0 °F 39.2 °F 66% 29.95 in - SSW 11.5 mph - N/A   Clear
11:50 PM 50.0 °F 39.2 °F 66% 29.98 in - SSW 10.4 mph - N/A   Clear